Weather History for Osceola Municipal, IA

Change the Weather History Date:

Friday, March 14, 2014

  Actual Average (KLWD) Record (KLWD)
Temperature  
Mean Temperature 44 °F 39 °F  
Max Temperature 55 °F 49 °F 81 °F (2012)
Min Temperature 33 °F 29 °F 9 °F (1975)
Degree Days  
Heating Degree Days 21 26  
Month to date heating degree days 402  
Since 1 July heating degree days 5119  
Cooling Degree Days 0 0  
Month to date cooling degree days 0  
Year to date cooling degree days 0  
Moisture  
Dew Point 25 °F    
Average Humidity 44    
Maximum Humidity 64    
Minimum Humidity 25    
Precipitation  
Precipitation 0.00 in 0.07 in 0.58 in (1990)
Month to date precipitation 0.86  
Sea Level Pressure  
Sea Level Pressure 29.80 in    
Wind  
Wind Speed 14 mph (West)    
Max Wind Speed 26 mph    
Max Gust Speed 37 mph    
Visibility 10 miles    
Events      
T = Trace of Precipitation, MM = Missing Value Source: NWS Daily Summary

Daily Weather History Graph

Daily Weather History Graph

Search for Another Location

Airport:

Trip Planner

Search our weather history database for the weather conditions in past years. The results will help you decide how hot, cold, wet, or windy it might be!

Date:

Astronomy

Mar. 14, 2014 Rise Set
Actual Time 7:28 AM CDT 7:20 PM CDT
Civil Twilight 7:00 AM CDT 7:47 PM CDT
Nautical Twilight 6:28 AM CDT 8:19 PM CDT
Astronomical Twilight 5:56 AM CDT 8:52 PM CDT
Moon 5:42 PM CDT (3/14) 6:09 AM CDT (3/14)
Length of Visible Light 12h 47m
Length of Day
11h 52m
Waxing Gibbous, 96% of the Moon is Illuminated
Mar 14
Waxing Gibbous
Mar 16
Full
Mar 23
Last Quarter
Mar 30
New
Apr 7
First Quarter

Hourly Weather History & Observations

Time (CDT) Temp. Windchill Dew Point Humidity Pressure Visibility Wind Dir Wind Speed Gust Speed Precip Events Conditions
12:15 AM 46.9 °F - 26.2 °F 44% 29.71 in 10.0 mi South 13.8 mph - N/A   Clear
12:35 AM 46.9 °F - 25.5 °F 43% 29.70 in 10.0 mi SSW 13.8 mph - N/A   Clear
12:55 AM 46.4 °F 40.4 °F 25.2 °F 43% 29.70 in 10.0 mi SSW 13.8 mph - N/A   Clear
1:15 AM 46.9 °F - 24.6 °F 42% 29.69 in 10.0 mi SSW 15.0 mph - N/A   Clear
1:35 AM 47.7 °F - 23.9 °F 39% 29.69 in 10.0 mi SSW 15.0 mph 21.9 mph N/A   Clear
1:55 AM 47.8 °F - 23.5 °F 39% 29.69 in 10.0 mi SSW 16.1 mph - N/A   Clear
2:15 AM 47.8 °F - 23.2 °F 38% 29.68 in 10.0 mi SSW 18.4 mph - N/A   Clear
2:35 AM 46.6 °F - 23.7 °F 41% 29.68 in 10.0 mi SSW 16.1 mph 21.9 mph N/A   Clear
2:55 AM 45.9 °F 39.7 °F 23.7 °F 42% 29.67 in 10.0 mi SSW 13.8 mph - N/A   Clear
3:15 AM 45.3 °F 39.0 °F 23.7 °F 43% 29.66 in 10.0 mi South 13.8 mph - N/A   Clear
3:35 AM 44.8 °F 38.0 °F 23.7 °F 44% 29.66 in 10.0 mi South 15.0 mph - N/A   Clear
3:55 AM 44.2 °F 37.6 °F 23.9 °F 45% 29.65 in 10.0 mi SSW 13.8 mph - N/A   Clear
4:15 AM 43.7 °F 37.3 °F 23.9 °F 46% 29.65 in 10.0 mi SSW 12.7 mph - N/A   Clear
4:35 AM 43.9 °F 37.5 °F 23.5 °F 45% 29.64 in 10.0 mi SSW 12.7 mph - N/A   Clear
4:55 AM 43.3 °F 37.2 °F 23.5 °F 46% 29.65 in 10.0 mi SW 11.5 mph - N/A   Clear
5:15 AM 42.4 °F 36.1 °F 23.9 °F 48% 29.65 in 10.0 mi SSW 11.5 mph - N/A   Clear
5:35 AM 41.4 °F 35.2 °F 23.9 °F 50% 29.65 in 10.0 mi SSW 10.4 mph - N/A   Clear
5:55 AM 41.0 °F 34.7 °F 24.1 °F 51% 29.66 in 10.0 mi SW 10.4 mph - N/A   Clear
6:15 AM 39.2 °F 34.2 °F 24.1 °F 55% 29.66 in 10.0 mi SW 6.9 mph - N/A   Clear
6:35 AM 38.5 °F 32.7 °F 23.9 °F 56% 29.66 in 10.0 mi SW 8.1 mph - N/A   Clear
6:55 AM 37.6 °F 31.0 °F 24.4 °F 59% 29.67 in 10.0 mi WSW 9.2 mph - N/A   Clear
7:15 AM 40.1 °F 33.2 °F 24.4 °F 54% 29.69 in 10.0 mi West 11.5 mph 17.3 mph N/A   Clear
7:35 AM 38.8 °F 32.6 °F 24.8 °F 57% 29.70 in 10.0 mi West 9.2 mph - N/A   Clear
7:55 AM 38.7 °F 32.4 °F 25.5 °F 59% 29.71 in 10.0 mi West 9.2 mph - N/A   Clear
8:15 AM 40.5 °F 33.6 °F 26.8 °F 58% 29.72 in 10.0 mi WNW 11.5 mph - N/A   Clear
8:35 AM 41.5 °F 34.6 °F 28.6 °F 60% 29.74 in 10.0 mi NW 12.7 mph - N/A   Clear
8:55 AM 42.8 °F 36.2 °F 29.1 °F 58% 29.76 in 10.0 mi NW 12.7 mph 19.6 mph N/A   Clear
9:15 AM 43.9 °F 36.8 °F 29.3 °F 57% 29.76 in 10.0 mi NW 15.0 mph - N/A   Clear
9:35 AM 45.3 °F 38.7 °F 28.9 °F 53% 29.77 in 10.0 mi NW 15.0 mph 20.7 mph N/A   Clear
9:55 AM 46.9 °F - 28.9 °F 50% 29.78 in 10.0 mi NW 12.7 mph 21.9 mph N/A   Clear
10:15 AM 47.5 °F - 28.9 °F 49% 29.79 in 10.0 mi WNW 18.4 mph 23.0 mph N/A   Clear
10:35 AM 48.2 °F - 29.5 °F 48% 29.81 in 10.0 mi WNW 17.3 mph - N/A   Clear
10:55 AM 50.0 °F - 30.4 °F 47% 29.81 in 10.0 mi WNW 13.8 mph 21.9 mph N/A   Clear
11:15 AM 50.5 °F - 29.5 °F 44% 29.81 in 10.0 mi WNW 19.6 mph 29.9 mph N/A   Clear
11:35 AM 51.1 °F - 29.8 °F 44% 29.82 in 10.0 mi WNW 21.9 mph 31.1 mph N/A   Clear
11:55 AM 51.6 °F - 29.5 °F 43% 29.83 in 10.0 mi WNW 20.7 mph 27.6 mph N/A   Clear
12:15 PM 52.3 °F - 29.1 °F 41% 29.83 in 10.0 mi WNW 17.3 mph 31.1 mph N/A   Clear
12:35 PM 52.0 °F - 27.1 °F 38% 29.84 in 10.0 mi WNW 23.0 mph 31.1 mph N/A   Clear
12:55 PM 52.9 °F - 27.3 °F 37% 29.84 in 10.0 mi WNW 23.0 mph 29.9 mph N/A   Clear
1:15 PM 53.4 °F - 25.0 °F 33% 29.84 in 10.0 mi West 21.9 mph 29.9 mph N/A   Clear
1:35 PM 54.5 °F - 24.6 °F 31% 29.84 in 10.0 mi West 19.6 mph 27.6 mph N/A   Clear
1:55 PM 54.5 °F - 20.3 °F 26% 29.84 in 10.0 mi West 23.0 mph 32.2 mph N/A   Clear
2:15 PM 55.2 °F - 21.4 °F 27% 29.84 in 10.0 mi West 24.2 mph 35.7 mph N/A   Clear
2:35 PM 54.7 °F - 20.7 °F 27% 29.85 in 10.0 mi West 25.3 mph 36.8 mph N/A   Clear
2:55 PM 54.5 °F - 19.4 °F 25% 29.85 in 10.0 mi WNW 21.9 mph 28.8 mph N/A   Clear
3:15 PM 54.5 °F - 21.7 °F 28% 29.85 in 10.0 mi West 25.3 mph 31.1 mph N/A   Clear
3:35 PM 54.0 °F - 23.0 °F 30% 29.86 in 10.0 mi WNW 26.5 mph 31.1 mph N/A   Clear
3:55 PM 54.0 °F - 23.4 °F 30% 29.86 in 10.0 mi WNW 23.0 mph 28.8 mph N/A   Clear
4:15 PM 54.0 °F - 23.7 °F 31% 29.87 in 10.0 mi WNW 20.7 mph 29.9 mph N/A   Scattered Clouds
4:35 PM 54.0 °F - 24.6 °F 32% 29.87 in 10.0 mi WNW 18.4 mph 29.9 mph N/A   Scattered Clouds
4:55 PM 52.7 °F - 23.2 °F 32% 29.87 in 10.0 mi WNW 18.4 mph 25.3 mph N/A   Scattered Clouds
5:15 PM 52.7 °F - 23.4 °F 32% 29.88 in 10.0 mi WNW 17.3 mph 24.2 mph N/A   Clear
5:35 PM 52.7 °F - 23.0 °F 31% 29.88 in 10.0 mi WNW 18.4 mph 23.0 mph N/A   Clear
5:55 PM 52.7 °F - 23.5 °F 32% 29.89 in 10.0 mi WNW 17.3 mph 23.0 mph N/A   Clear
6:15 PM 52.0 °F - 23.7 °F 33% 29.89 in 10.0 mi WNW 12.7 mph - N/A   Clear
6:35 PM 51.1 °F - 22.6 °F 33% 29.90 in 10.0 mi West 12.7 mph 20.7 mph N/A   Clear
6:55 PM 49.1 °F - 24.4 °F 38% 29.91 in 10.0 mi WNW 9.2 mph - N/A   Clear
7:15 PM 46.9 °F - 23.2 °F 39% 29.92 in 10.0 mi West 8.1 mph - N/A   Clear
7:35 PM 43.3 °F 39.9 °F 23.0 °F 45% 29.92 in 10.0 mi West 5.8 mph - N/A   Clear
7:55 PM 41.7 °F 38.0 °F 23.2 °F 48% 29.93 in 10.0 mi West 5.8 mph - N/A   Clear
8:15 PM 41.4 °F 37.6 °F 22.8 °F 48% 29.93 in 10.0 mi West 5.8 mph - N/A   Clear
8:35 PM 42.6 °F 39.9 °F 22.1 °F 44% 29.94 in 10.0 mi West 4.6 mph - N/A   Clear
8:55 PM 41.4 °F 38.4 °F 22.3 °F 47% 29.94 in 10.0 mi West 4.6 mph - N/A   Clear
9:15 PM 42.1 °F 38.4 °F 22.1 °F 45% 29.94 in 10.0 mi West 5.8 mph - N/A   Clear
9:35 PM 41.0 °F 38.0 °F 22.3 °F 47% 29.95 in 10.0 mi WSW 4.6 mph - N/A   Clear
9:55 PM 38.1 °F 34.6 °F 23.0 °F 55% 29.95 in 10.0 mi WSW 4.6 mph - N/A   Clear
10:15 PM 39.2 °F 35.0 °F 22.8 °F 52% 29.95 in 10.0 mi West 5.8 mph - N/A   Clear
10:35 PM 39.4 °F 35.2 °F 22.6 °F 51% 29.96 in 10.0 mi WSW 5.8 mph - N/A   Clear
10:55 PM 37.2 °F 34.7 °F 23.0 °F 56% 29.97 in 10.0 mi West 3.5 mph - N/A   Clear
11:15 PM 34.5 °F 31.6 °F 22.5 °F 61% 29.97 in 10.0 mi SW 3.5 mph - N/A   Clear
11:35 PM 33.8 °F 29.6 °F 22.8 °F 64% 29.98 in 10.0 mi WSW 4.6 mph - N/A   Clear
11:55 PM 36.0 °F 31.1 °F 22.8 °F 59% 29.97 in 10.0 mi WSW 5.8 mph - N/A   Clear